Location: Newark
(54.6833°N, 25.2833°E)
Time: 01:19:11
(UTC+00:00)

A-11 Canister half - Pass Details

Date: 26 January 2021
Orbit: 1525 x 1684 km, 47.3° (Epoch: 05 March)

Event Time Altitude Azimuth Distance (km) Brightness Sun altitude
Rises 15:51:09 0° 266° (W) 4,703 13.3 -9.4°
Reaches altitude 10° 15:54:14 10° 262° (W) 3,734 12.6 -9.8°
Maximum altitude 16:03:20 55° 189° (S) 1,859 9.6 -11.1°
Drops below altitude 10° 16:12:43 10° 115° (ESE) 3,849 10.6 -12.4°
Enters shadow 16:14:24 - 113° (ESE) 4,371 10.9 -12.6°
